Location: Sungai Buloh
(3.1000°N, 113.0000°E)
Time: 16:55:20
(UTC+00:00)

Sich 1 - Pass Details

Date: 12 January 2026
Orbit: 571 x 598 km, 82.5° (Epoch: 10 February)

Event Time Altitude Azimuth Distance (km) Brightness Sun altitude
Rises 21:40:59 0° 188° (S) 2,834 6.6 -14.0°
Reaches altitude 10° 21:43:12 10° 191° (S) 1,928 5.7 -13.5°
Maximum altitude 21:47:27 68° 274° (W) 637 2.9 -12.5°
Drops below altitude 10° 21:51:38 10° 357° (N) 1,907 5.3 -11.6°
Sets 21:53:49 0° 360° (N) 2,801 6.2 -11.1°
